{"data":{"norad_id":63723,"intl_designator":"2025-087AC","name":"STARLINK-33806","alt_names":[],"object_type":"PAYLOAD","status":"ACTIVE","operator":null,"country":"US","launch_date":"2025-04-28","launch_site_code":"AFWTR","launch_vehicle":null,"mission":null,"orbit_class":"UNKNOWN","rcs_meters":null,"size_class":null,"mass_kg":null,"dimensions":null,"purposes":["comms"],"wikipedia_slug":null,"has_3d_model":false,"image_url":null,"decayed_at":null,"tle_current":{"epoch":"2026-05-25T04:40:30.505728Z","epoch_age_seconds":61815,"freshness":"FRESH","line1":"1 63723U 25087AC  26145.19479752  .00013025  00000+0  45106-3 0  9994","line2":"2 63723  53.1581 224.1398 0000942  97.3393 262.7715 15.30202964 60912","mean_motion":15.30202964,"eccentricity":9.42e-5,"inclination_deg":53.1581,"raan_deg":224.1398,"arg_perigee_deg":97.3393,"mean_anomaly_deg":262.7715,"bstar":0.00045106,"rev_number":6091,"period_min":94.105163424582,"perigee_km":474.5606345326,"apogee_km":475.85180439515,"semimajor_km":6853.3432194639,"source":"CELESTRAK","updated_at":"2026-05-25T13:38:20.102531Z"}}}